Whitefield, NH

6:23 PM EST on February 21, 2018 (GMT -0500)
Mount Washington Regional

Weather History for KHIE - November, 2012

Change the Weather History Date:

Sunday, November 4, 2012

  Actual Average Record
Temperature  
Mean Temperature 35 °F -  
Max Temperature 37 °F 44 °F 64 °F (2008)
Min Temperature 33 °F 26 °F 15 °F (2002)
Degree Days  
Heating Degree Days 30    
Moisture  
Dew Point 31 °F    
Average Humidity 83    
Maximum Humidity 93    
Minimum Humidity 70    
Precipitation  
Precipitation 0.01 in - - ()
Sea Level Pressure  
Sea Level Pressure 29.90 in    
Wind  
Wind Speed 5 mph (West)    
Max Wind Speed 9 mph    
Max Gust Speed -    
Visibility 9 miles    
Events Rain , Snow    
Averages and records for this station are not official NWS values.
T = Trace of Precipitation, MM = Missing Value Source: NWS Daily Summary

Daily Weather History Graph

Daily Weather History Graph

Search for Another Location

Airport or City:

Trip Planner

Search our weather history database for the weather conditions in past years. The results will help you decide how hot, cold, wet, or windy it might be!

Date:

Astronomy

Nov. 04, 2012 Rise Set
Actual Time 6:27 AM EST 4:30 PM EST
Civil Twilight 5:57 AM EST 5:01 PM EST
Nautical Twilight 5:22 AM EST 5:35 PM EST
Astronomical Twilight 4:49 AM EST 6:09 PM EST
Moon 9:04 PM EST (11/4) 11:12 AM EST (11/4)
Length of Visible Light 11h 03m
Length of Day
10h 02m
Waning Gibbous, 72% of the Moon is Illuminated
Nov 4
Waning Gibbous
Nov 6
Last Quarter
Nov 13
New
Nov 20
First Quarter
Nov 28
Full

Hourly Weather History & Observations

Time (EST) Temp. Windchill Dew Point Humidity Pressure Visibility Wind Dir Wind Speed Gust Speed Precip Events Conditions
12:25 AM 35.6 °F 31.7 °F 33.8 °F 93% 29.81 in 9.0 mi SSW 4.6 mph - 0.01 in Rain Light Rain
12:33 AM 35.6 °F 31.7 °F 33.8 °F 93% 29.81 in 8.0 mi SSW 4.6 mph - 0.01 in Rain Light Rain
12:45 AM 35.6 °F 31.7 °F 33.8 °F 93% 29.81 in 10.0 mi SSW 4.6 mph - 0.01 in   Overcast
12:52 AM 36.0 °F 32.1 °F 34.0 °F 93% 29.85 in 10.0 mi SSW 4.6 mph - 0.01 in   Overcast
1:47 AM 37.4 °F 33.8 °F 33.8 °F 87% 29.81 in 10.0 mi SSW 4.6 mph - N/A   Overcast
1:52 AM 37.0 °F 34.5 °F 34.0 °F 89% 29.85 in 10.0 mi SSW 3.5 mph - N/A   Overcast
1:52 AM 37.0 °F 34.5 °F 34.0 °F 89% 29.86 in 10.0 mi Variable 3.5 mph - N/A   Overcast
2:52 AM 37.0 °F 34.5 °F 34.0 °F 89% 29.86 in 10.0 mi SSW 3.5 mph - N/A   Overcast
3:52 AM 37.0 °F - 33.1 °F 86% 29.87 in 10.0 mi Calm Calm - N/A   Overcast
4:52 AM 37.0 °F 33.3 °F 33.1 °F 86% 29.88 in 10.0 mi Variable 4.6 mph - N/A   Overcast
5:52 AM 37.0 °F 34.5 °F 33.1 °F 86% 29.89 in 10.0 mi SW 3.5 mph - 0.00 in Rain Light Rain
6:52 AM 36.0 °F 32.1 °F 30.9 °F 82% 29.91 in 10.0 mi West 4.6 mph - 0.00 in   Overcast
8:07 AM 35.6 °F 30.7 °F 30.2 °F 81% 29.90 in 10.0 mi West 5.8 mph - N/A   Overcast
8:32 AM 35.6 °F 30.7 °F 30.2 °F 81% 29.90 in 9.0 mi WSW 5.8 mph - 0.00 in   Overcast
8:52 AM 35.1 °F 30.1 °F 30.9 °F 85% 29.94 in 4.0 mi West 5.8 mph - 0.00 in Snow Light Snow
9:52 AM 36.0 °F 31.1 °F 30.0 °F 79% 29.94 in 7.0 mi West 5.8 mph - 0.00 in Snow Light Snow
11:43 AM 37.4 °F 32.8 °F 32.0 °F 81% 29.88 in 8.0 mi West 5.8 mph - 0.00 in Snow Light Snow
11:52 AM 36.0 °F 32.1 °F 32.0 °F 86% 29.92 in 8.0 mi SW 4.6 mph - 0.00 in Snow Light Snow
12:52 PM 37.0 °F 31.6 °F 30.9 °F 79% 29.91 in 10.0 mi West 6.9 mph - N/A   Overcast
1:08 PM 37.4 °F 33.8 °F 30.2 °F 75% 29.88 in 8.0 mi West 4.6 mph - 0.00 in Snow Light Snow
1:52 PM 37.0 °F 31.6 °F 32.0 °F 82% 29.91 in 10.0 mi NW 6.9 mph - 0.00 in   Overcast
2:52 PM 37.0 °F 32.4 °F 30.9 °F 79% 29.92 in 10.0 mi NW 5.8 mph - 0.00 in   Overcast
3:44 PM 35.6 °F 29.9 °F 32.0 °F 87% 29.90 in 9.0 mi WNW 6.9 mph - 0.00 in   Overcast
3:52 PM 36.0 °F 29.0 °F 32.0 °F 86% 29.94 in 10.0 mi WNW 9.2 mph - 0.00 in   Overcast
4:24 PM 35.6 °F 31.7 °F 30.2 °F 81% 29.91 in 10.0 mi WNW 4.6 mph - N/A   Overcast
4:52 PM 35.1 °F 31.0 °F 30.9 °F 85% 29.95 in 8.0 mi NNW 4.6 mph - N/A   Overcast
5:52 PM 34.0 °F 28.0 °F 30.0 °F 85% 29.96 in 10.0 mi NW 6.9 mph - 0.00 in   Overcast
6:52 PM 34.0 °F 28.0 °F 27.0 °F 75% 29.98 in 10.0 mi NW 6.9 mph - N/A   Overcast
7:52 PM 34.0 °F 28.8 °F 28.0 °F 79% 29.98 in 10.0 mi NW 5.8 mph - N/A   Overcast
8:52 PM 34.0 °F 31.0 °F 25.0 °F 70% 29.99 in 10.0 mi NW 3.5 mph - N/A   Overcast
9:52 PM 33.1 °F 30.0 °F 25.0 °F 72% 29.99 in 10.0 mi WNW 3.5 mph - N/A   Overcast
10:52 PM 33.1 °F - 25.0 °F 72% 29.99 in 10.0 mi Calm Calm - N/A   Overcast